Regional Weather Roundup
Issued by NWS Cleveland, OH

Home | Current Version | Previous Version | Graphics & Text | Print | Product List | Glossary On
Versions: 1 2 3 4 5 6 7 8 9 10 11 12 13 14 15 16 17 18 19 20 21 22 23 24 25 26 27 28 29 30 31 32 33 34 35 36 37 38 39 40 41 42 43 44 45 46 47 48 49 50
000
ASUS41 KCLE 101612
RWRCLE
OHIO REGIONAL WEATHER ROUNDUP
NATIONAL WEATHER SERVICE WILMINGTON, OH
1100 AM EST SAT DEC 10 2016

NOTE: "FAIR" INDICATES FEW OR NO CLOUDS BELOW 12,000 FEET WITH NO
SIGNIFICANT WEATHER AND/OR OBSTRUCTIONS TO VISIBILITY.

OHZ001>008-015>018-024>027-034-035-043-044-101700-
   NORTHWEST OHIO

CITY           SKY/WX    TMP DP  RH WIND       PRES   REMARKS
DEFIANCE       FAIR      26  14  60 W8        30.51S WCI  18
FINDLAY        FAIR      26  14  60 W13       30.51R WCI  15
TOLEDO EXPRESS FAIR      25  15  66 W15       30.49S WCI  13
TOLEDO EXEC    FAIR      26  15  63 SW12      30.50S WCI  16
LIMA           FAIR      23  16  74 W13       30.51R WCI  11
$$

OHZ009>014-019>023-028>033-038-089-101700-
   NORTHEAST OHIO

CITY           SKY/WX    TMP DP  RH WIND       PRES   REMARKS
CLE-HOPKINS    FAIR      28  15  58 W12       30.51R WCI  18
CLE-LAKEFRONT  CLOUDY    26  17  68 SW18      30.48S WCI  13
CUY CO. ARPT   LGT SNOW  27  19  74 SW12G21   30.46R WCI  16
LORAIN-ELYRIA  CLOUDY    24  15  68 W14       30.50R WCI  12
ASHTABULA      LGT SNOW  22  20  92 SW16      30.44S FOG     WCI   8
AKRON-CANTON   CLOUDY    25  15  66 W14       30.47S WCI  13
WOOSTER        PTSUNNY   23  15  71 W15       30.49S WCI  10
MANSFIELD      CLOUDY    22  14  71 SW8       30.48R WCI  12
YOUNGSTOWN     PTSUNNY   26  17  68 W15G22    30.43S WCI  14
$$

OHZ042-051>053-060>062-070>072-077>081-101700-
  SOUTHWEST OHIO

CITY           SKY/WX    TMP DP  RH WIND       PRES   REMARKS
CINC-COVINGTON PTSUNNY   25  16  68 W7        30.57R WCI  17
CINC-LUNKEN    PTSUNNY   27  18  69 W7        30.62R WCI  19
HAMILTON       CLOUDY    28  18  66 SW9       30.59S WCI  19
DAYTON         FLURRIES  24  16  71 W13       30.54R WCI  12
WRIGHT-PAT AFB CLOUDY    26  17  71 SW8       30.55R WCI  17
DAYTON GENERAL CLOUDY    25  16  68 SW6       30.54S WCI  18
WILMINGTON     PTSUNNY   27  16  63 W12       30.53F WCI  17
$$

OHZ036-037-039>041-045>050-054>059-063>069-073>076-082>088-101700-
  CENTRAL AND SOUTHEAST OHIO

CITY           SKY/WX    TMP DP  RH WIND       PRES   REMARKS
COLUMBUS       CLOUDY    24  19  81 W3        30.54S
OSU AIRPORT    CLOUDY    24  16  71 W7        30.53S WCI  16
BOLTON FIELD   CLOUDY    27  18  69 W8        30.54S WCI  18
RICKENBACK AFB   N/A     26  18  70 SW6       30.54F WCI  20
NEWARK         LGT SNOW  24  18  77 W6        30.53S WCI  17
MARION         CLOUDY    24  15  68 W12       30.52R WCI  13
LANCASTER      CLOUDY    26  18  71 W10       30.55S WCI  16
ZANESVILLE     CLOUDY    26  16  65 SW9       30.53S WCI  17
NEW PHILLY     FAIR      26  15  63 W9        30.52S WCI  17
$$



USA.gov is the U.S. government's official web portal to all federal, state and local government web resources and services.